Detroit Metro, MI

5:03 PM EDT on July 27, 2017 (GMT -0400)
Detroit Metro Wayne County

Weather History for KDTW - May, 2013

Change the Weather History Date:

Friday, May 10, 2013

  Actual Average Record
Temperature  
Mean Temperature 61 °F 58 °F  
Max Temperature 76 °F 68 °F 90 °F (1936)
Min Temperature 45 °F 47 °F 25 °F (1966)
Degree Days  
Heating Degree Days 4 8  
Month to date heating degree days 13 93  
Since 1 July heating degree days 5782 5987  
Cooling Degree Days 0 1  
Month to date cooling degree days 11 5  
Year to date cooling degree days 11 11  
Growing Degree Days 10 (Base 50)    
Moisture  
Dew Point 54 °F    
Average Humidity 75    
Maximum Humidity 97    
Minimum Humidity 52    
Precipitation  
Precipitation 0.21 in 0.11 in 2.33 in (1948)
Month to date precipitation 0.22 1.02  
Year to date precipitation 12.53 10.18  
Snow  
Snow 0.00 in 0.00 in 0.50 in (1902)
Month to date snowfall 0.0 0.0  
Since 1 July snowfall 47.7 42.5  
Snow Depth 0.00 in    
Sea Level Pressure  
Sea Level Pressure 29.81 in    
Wind  
Wind Speed 12 mph (SW)    
Max Wind Speed 24 mph    
Max Gust Speed 29 mph    
Visibility 8 miles    
Events Rain    
T = Trace of Precipitation, MM = Missing Value Source: NWS Daily Summary

Daily Weather History Graph

Daily Weather History Graph

Search for Another Location

Airport or City:

Trip Planner

Search our weather history database for the weather conditions in past years. The results will help you decide how hot, cold, wet, or windy it might be!

Date:

Astronomy

May. 10, 2013 Rise Set
Actual Time 6:17 AM EDT 8:42 PM EDT
Civil Twilight 5:45 AM EDT 9:14 PM EDT
Nautical Twilight 5:06 AM EDT 9:53 PM EDT
Astronomical Twilight 4:23 AM EDT 10:37 PM EDT
Moon 6:40 AM EDT (5/10) 9:31 PM EDT (5/10)
Length of Visible Light 15h 28m
Length of Day
14h 25m
New Moon, 0% of the Moon is Illuminated
May 10
New Moon
May 18
First Quarter
May 25
Full
May 31
Last Quarter
Jun 8
New

Hourly Weather History & Observations

Time (EDT) Temp. Windchill Dew Point Humidity Pressure Visibility Wind Dir Wind Speed Gust Speed Precip Events Conditions
12:53 AM 66.0 °F - 48.0 °F 52% 29.92 in 10.0 mi South 8.1 mph - N/A   Overcast
1:53 AM 66.0 °F - 54.0 °F 65% 29.91 in 10.0 mi SW 8.1 mph - 0.00 in Rain Light Rain
2:53 AM 63.0 °F - 57.0 °F 81% 29.87 in 10.0 mi Calm Calm - 0.01 in Rain Light Rain
3:53 AM 63.0 °F - 57.9 °F 84% 29.86 in 7.0 mi South 5.8 mph - 0.00 in Rain Light Rain
4:53 AM 61.0 °F - 57.0 °F 87% 29.82 in 9.0 mi Calm Calm - 0.05 in Rain Light Rain
5:31 AM 60.8 °F - 57.2 °F 88% 29.82 in 4.0 mi SE 6.9 mph - 0.01 in Rain Light Rain
5:53 AM 60.1 °F - 57.9 °F 93% 29.81 in 3.0 mi ESE 9.2 mph - 0.05 in Rain Heavy Rain
5:59 AM 60.8 °F - 57.2 °F 88% 29.81 in 3.0 mi ESE 8.1 mph - 0.03 in Rain Heavy Rain
6:22 AM 60.8 °F - 57.2 °F 88% 29.81 in 2.5 mi ESE 10.4 mph - 0.09 in Rain Rain
6:37 AM 60.8 °F - 57.2 °F 88% 29.80 in 2.0 mi ESE 10.4 mph - 0.10 in Rain Rain
6:53 AM 61.0 °F - 59.0 °F 93% 29.80 in 2.0 mi SE 9.2 mph - 0.10 in Rain Rain
7:03 AM 60.8 °F - 60.8 °F 100% 29.80 in 2.5 mi SSE 11.5 mph - 0.00 in Rain Light Rain
7:13 AM 60.8 °F - 60.8 °F 100% 29.80 in 5.0 mi SSE 11.5 mph - 0.00 in Rain Light Rain
7:50 AM 62.6 °F - 59.0 °F 88% 29.80 in 6.0 mi South 12.7 mph - 0.00 in   Overcast
7:53 AM 63.0 °F - 60.1 °F 90% 29.79 in 6.0 mi South 11.5 mph - 0.00 in   Overcast
8:00 AM 62.6 °F - 60.8 °F 94% 29.80 in 7.0 mi South 15.0 mph - N/A   Overcast
8:49 AM 64.4 °F - 60.8 °F 88% 29.80 in 9.0 mi South 15.0 mph - N/A   Overcast
8:53 AM 64.0 °F - 60.1 °F 87% 29.79 in 9.0 mi South 13.8 mph - N/A   Overcast
9:38 AM 64.4 °F - 59.0 °F 83% 29.80 in 10.0 mi South 16.1 mph 24.2 mph N/A   Overcast
9:53 AM 66.0 °F - 60.1 °F 81% 29.79 in 10.0 mi SSW 12.7 mph - N/A   Overcast
10:53 AM 68.0 °F - 59.0 °F 73% 29.78 in 10.0 mi SSW 19.6 mph 27.6 mph N/A   Overcast
11:11 AM 68.0 °F - 59.0 °F 73% 29.79 in 10.0 mi SSW 16.1 mph - N/A   Overcast
11:53 AM 70.0 °F - 60.1 °F 71% 29.78 in 10.0 mi SSW 17.3 mph 23.0 mph N/A   Overcast
12:53 PM 71.6 °F - 57.2 °F 60% 29.78 in 10.0 mi SW 19.6 mph 27.6 mph N/A   Overcast
1:53 PM 73.9 °F - 57.0 °F 55% 29.76 in 10.0 mi SSW 17.3 mph 26.5 mph N/A   Overcast
2:53 PM 70.0 °F - 57.9 °F 65% 29.75 in 10.0 mi West 12.7 mph - N/A   Mostly Cloudy
3:53 PM 70.0 °F - 57.9 °F 65% 29.75 in 10.0 mi WNW 10.4 mph - N/A   Overcast
4:53 PM 63.0 °F - 54.0 °F 72% 29.77 in 10.0 mi NW 15.0 mph 20.7 mph N/A   Mostly Cloudy
5:53 PM 61.0 °F - 51.1 °F 70% 29.78 in 10.0 mi NW 12.7 mph - N/A   Mostly Cloudy
6:29 PM 57.2 °F - 48.2 °F 72% 29.78 in 10.0 mi WNW 12.7 mph 19.6 mph N/A   Mostly Cloudy
6:53 PM 57.9 °F - 46.9 °F 67% 29.78 in 10.0 mi NW 11.5 mph - N/A   Overcast
7:34 PM 53.6 °F - 44.6 °F 72% 29.80 in 10.0 mi NNW 12.7 mph - N/A   Mostly Cloudy
7:53 PM 53.1 °F - 43.0 °F 69% 29.80 in 10.0 mi NW 13.8 mph - N/A   Mostly Cloudy
8:21 PM 51.8 °F - 42.8 °F 71% 29.81 in 10.0 mi NW 11.5 mph - N/A   Overcast
8:53 PM 48.9 °F - 41.0 °F 74% 29.82 in 10.0 mi NW 15.0 mph - N/A   Overcast
9:53 PM 46.9 °F - 39.0 °F 74% 29.85 in 10.0 mi NW 15.0 mph - N/A   Overcast
10:53 PM 46.0 °F 40.2 °F 39.0 °F 76% 29.86 in 10.0 mi NNW 12.7 mph - N/A   Overcast
11:19 PM 44.6 °F 38.1 °F 39.2 °F 81% 29.86 in 10.0 mi NW 13.8 mph - N/A   Overcast
11:53 PM 45.0 °F 40.6 °F 37.9 °F 76% 29.87 in 10.0 mi NW 8.1 mph - N/A   Overcast